作者hicker (夏天腦袋容易熱當機....)
看板Baseball
標題[先發] MLB NLDS G2 CHC @ STL
時間Sun Oct 11 02:16:24 2015
小熊今年拿冠軍!! 小熊今年拿冠軍!! 小熊今年拿冠軍!! 小熊今年拿冠軍!!
Chicago St. Louis
Cubs
Jackson Fowler Soler Cardinals
1
Fowler \
Holliday Heyward Piscotty / 1
Carpenter
2
Soler \
Russell Castro / 2
Piscotty
3
Bryant \
Peralta Wong / 3
Holliday
4
Rizzo Bryant Rizzo 4
Heyward
5
Castro Carpenter Moss 5
Peralta
6
Jackson \
Hendricks / 6
Moss
7
Montero \
Garcia / 7
Molina
8
Hendricks \ /
8
Wong
9
Russell \ / 9
Garcia
Montero
FOX Sports HD & 3 HD
Molina
民視無線台與四季台 四台直播
五點半開打
小熊今年拿冠軍!! 小熊今年拿冠軍!! 小熊今年拿冠軍!! 小熊今年拿冠軍!!
--
※ 發信站: 批踢踢實業坊(ptt.cc), 來自: 59.115.232.225
※ 文章網址: https://webptt.com/m.aspx?n=bbs/Baseball/M.1444500987.A.247.html
※ 編輯: hicker (59.115.232.225), 10/11/2015 02:17:36
1F:推 abc06: 小熊今年拿冠軍!! 10/11 02:18
2F:推 asdzxc1662: 推推 小熊拿冠軍!! 10/11 02:18
3F:推 coon182: 小熊衝啊!!! 10/11 02:23
4F:推 loveinmars: 小熊今年拿冠軍!!! 10/11 02:25
5F:推 dcshoecousa: 雖然不是小熊迷 但是今年支持小熊 10/11 02:27
6F:推 panypany: 小熊今年拿冠軍!!!! 10/11 02:27
7F:推 earnformoney: 老大加油好嗎 10/11 02:29
8F:→ qlz: 小熊今年拿冠軍! 10/11 02:29
9F:推 angeltear15: 小熊拿冠軍 10/11 02:32
10F:推 lmf770410: 小熊這場贏我給樓下五樓100P 來去睡...已暈 10/11 02:33
11F:推 hyjoly: 好 10/11 02:34
12F:推 hgs000sss: 好 10/11 02:34
13F:推 nainaiwen: 好 10/11 02:34
14F:推 mark2334567: 好 10/11 02:34
15F:推 INNBUG: THX 10/11 02:35
16F:推 jack801016: 好 10/11 02:35
17F:推 k66333: GO CUBS!! 10/11 02:38
18F:推 ttnakafzcm: CHC這場吃STL 我下面7樓每人100P 10/11 02:51
19F:推 TSbb: 好 10/11 02:52
20F:推 Konanson: 好 謝 10/11 02:52
21F:推 hsinya1015: 推 10/11 02:53
22F:推 needspace: 謝謝!ㄨ 10/11 02:53
23F:推 MeloKing: 好 10/11 02:54
24F:推 HKHK: 推 10/11 02:54
25F:推 copyflyN: push 10/11 02:55
26F:推 BigFly5566: Ok 10/11 02:55
27F:推 hunkin: 2015小熊拿冠軍 10/11 03:07
28F:→ Rex3661: 小熊今年拿冠軍! 10/11 03:11
29F:→ iceafu: 小熊今年拿冠軍~~~~~~~~~~~~~~~~~~~~~~~~~ 10/11 03:13
30F:推 sediments: 好快 10/11 03:27
31F:推 laihom0808: 先看SH支不支持小熊吧XD 10/11 03:30
32F:推 reexamine: 小熊今年拿冠軍! 10/11 03:52
33F:→ j3307002: 小熊今年拿冠軍! 10/11 04:55
34F:推 FK84288: 2015小熊拿冠軍 10/11 05:28
35F:推 liDong: LET's GO CHC!!! 10/11 05:29
36F:→ hicker: play ball!! 10/11 05:31
37F:推 asdfg5287: 開打囉 10/11 05:39
38F:→ asdfg5287: 遊滾 10/11 05:39
39F:噓 abc06: 2B 10/11 05:41
40F:推 asdfg5287: 二安 10/11 05:41
41F:推 dandanhanbau: 2B!!! 10/11 05:41
42F:推 st015600: 呵呵 10/11 05:42
43F:推 IRPT001: 老熊迷 10/11 05:43
44F:推 asdfg5287: k 10/11 05:44
45F:推 abc06: Laoda怒打一鐵 10/11 05:45
46F:推 asdfg5287: kkkkkk 10/11 05:47
47F:推 qazzaq3977: 2015小熊迷報到 10/11 05:49
48F:推 qazzaq3977: ..... 10/11 05:51
49F:推 IRPT001: 兇 10/11 05:51
50F:推 flicker36: 不妙了 10/11 05:51
51F:推 abc06: GG 一開始就掉分 10/11 05:51
52F:推 buccos: Gone 10/11 05:51
53F:推 honafire: ZZZZZZZZZZZ 10/11 05:51
54F:推 gash8830: 紅雀hr 10/11 05:51
55F:→ hicker: CHC 0:1 STL 10/11 05:51
56F:推 st015600: 幹 被尻 10/11 05:52
57F:→ honafire: 球都偏高了 非常不妙@@ 10/11 05:52
58F:→ hicker: 而且是首打席炸裂....小熊士氣下降20% 10/11 05:52
59F:推 dog23698: 不妙呀....又是先掉分,打線又一直打鐵 10/11 05:52
60F:→ honafire: 壓不住的感覺@@ 10/11 05:54
61F:→ hicker: 這球也是很危險....(冒冷汗) 10/11 05:54
62F:推 dandanhanbau: ZZZ 10/11 05:54
63F:→ IRPT001: 美技沒重播 10/11 05:56
64F:→ hicker: 兩顆星的一壘刺殺 換邊 10/11 05:56
65F:推 dandanhanbau: 1B 10/11 05:59
66F:推 IRPT001: 王 10/11 06:01
67F:推 dandanhanbau: 中職? 10/11 06:02
68F:推 st015600: 手軟???? 10/11 06:02
69F:推 Vincent8026: 克頓王 10/11 06:02
70F:推 dog23698: 這傳球...... 10/11 06:02
71F:推 abc06: 又E 10/11 06:05
72F:推 freedomshit: XDDD 10/11 06:05
73F:→ abc06: 看本壘想殺 結果傳一壘失誤 10/11 06:06
74F:→ hicker: CHC 1:1 STL 10/11 06:06
75F:推 dandanhanbau: XDDDDDDDDDDD 中職化 10/11 06:06
76F:→ freedomshit: 被嚇到了嗎 投手強迫取分 10/11 06:06
77F:推 asdfg5287: 好慘 10/11 06:06
78F:推 dog23698: 小熊冠軍!!小熊冠軍!! 10/11 06:06
79F:推 thebig: 梅登!!! 10/11 06:06
80F:推 MrBigTree: 丞相起風辣 10/11 06:07
81F:推 pdr666333: 球迷傻眼 10/11 06:07
82F:推 tripler: 季後賽果然什麼事都會發生 XD 10/11 06:07
83F:推 richard1003: 慘 變一出局二三壘 10/11 06:07
84F:推 idtvgame: 紅鳥自爆啦~ 10/11 06:07
85F:推 st015600: 傳球又失誤 zzzzzz 10/11 06:07
86F:→ hicker: 強迫取分追平 小熊使出[混亂] 士氣上升20% 10/11 06:07
87F:→ hicker: CHC 2:1 STL 10/11 06:07
88F:推 asdfg5287: 再來一次 10/11 06:08
89F:推 abc06: 這2次傳本壘都殺的到說 10/11 06:08
90F:推 MrBigTree: 強迫取分成功 10/11 06:08
91F:推 dandanhanbau: 小熊小球 10/11 06:08
92F:→ abc06: 內安 3:1 10/11 06:09
93F:推 richard1003: 第二次應該是沒機會 10/11 06:09
94F:推 freedomshit: 水 10/11 06:09
95F:推 dog23698: 沒有梅登做不到的調度 10/11 06:09
96F:→ hicker: CHC 3:1 STL 10/11 06:09
97F:→ asdfg5287: 哇塞 紅鳥亂了 10/11 06:09
98F:→ nyyjeter8: 這三分 靠速度戰術打出來的 XD 10/11 06:09
99F:推 pdr666333: 看到都笑了XD 10/11 06:09
100F:推 liDong: 我熊威武 衝啊!!!!!!!!!!!!!! 10/11 06:09
101F:推 ripeChu10141: XDDD小熊靈氣啊 10/11 06:09
102F:→ thebig: 大局啦!!! 10/11 06:09
103F:→ hicker: 紅雀[混亂]狀況持續中 士氣下降10% 10/11 06:09
104F:→ richard1003: 預言要成真?紅鳥主場自爆 10/11 06:10
105F:推 KYOROD: 預言是絕對的 紅鳥任命吧 10/11 06:10
106F:推 ericpitt: 這是什麼等級的守備? 大檸檬級的啦 10/11 06:10
107F:→ dog23698: 應該會盜壘,速度站 10/11 06:10
108F:→ freedomshit: 小球玩得好神 對手整個被搞亂 10/11 06:10
109F:→ dog23698: 抱歉,速度戰 10/11 06:10
110F:→ ericpitt: 這是什麼隊伍? 近十年來最強的球隊 10/11 06:10
111F:推 a85370: 沒一球打出內野,得3分~~ 10/11 06:10
112F:→ hicker: 最強隊伍也是會中招的 10/11 06:11
113F:推 coon182: 紅鳥也擋不住靈氣 10/11 06:11
114F:推 IRPT001: 1904有什麼樑子 10/11 06:11
115F:推 mioloveme: Blitzkrieg!!! 10/11 06:12
116F:推 abc06: HR 5:1 10/11 06:13
117F:推 freedomshit: wwwwwww 10/11 06:13
118F:推 dandanhanbau: HRRRRRRRRRRRRRRRRRRRRRRRRRRRRRRRR 10/11 06:13
119F:→ nyyjeter8: 尻! 10/11 06:13
120F:→ hicker: CHC 5:1 STL 炸囉!!!!!!! 10/11 06:13
121F:推 dog23698: !!!hrrrrrrr 10/11 06:13
122F:推 liDong: 帥慘啦!!!!!!!!!!!!!!!!! 10/11 06:13
123F:推 KYOROD: 厚黑炸裂! 10/11 06:13
124F:推 coon182: 爽啦!!! 10/11 06:13
125F:推 ericpitt: 當你的注意力被壘上 被場上狀況搞得很毛時 什麼都會發生 10/11 06:13
126F:推 thebig: 小熊!!!!!!! 10/11 06:13
127F:→ richard1003: Gone 徹底炸裂 10/11 06:13
128F:推 MrBigTree: 炸烈辣 10/11 06:13
129F:推 IRPT001: 我熊威武 10/11 06:13
130F:→ freedomshit: 老大.. 10/11 06:14
131F:→ nyyjeter8: 歷史之壁 10/11 06:14
132F:推 honafire: 好嗨阿 10/11 06:14
133F:推 gotohikaru: 這局該怎麼說呢...XD 10/11 06:14
134F:→ hicker: CHC 5:1 STL 2上打完 [小熊今年拿冠軍!!] 10/11 06:14
135F:→ chen06: 哇!一開電視就5:1 小熊今年拿冠軍! 10/11 06:16
136F:推 MrBigTree: 悶了一百零七年,一次討回來 10/11 06:17
137F:推 linshuhui: 小熊再輸真的就要GG了 10/11 06:18
138F:推 abc06: NP 10/11 06:18
139F:推 dunhiller: NP 10/11 06:18
140F:推 dandanhanbau: 超級NP 10/11 06:18
141F:→ hicker: NP!! 10/11 06:18
142F:推 and5566183: NPPPPP 10/11 06:18
143F:推 liDong: 我熊威武 衝啊!!! NP 10/11 06:18
144F:→ MrBigTree: 游擊開外掛 10/11 06:18
145F:推 KYOROD: 這守備日職可做不到 10/11 06:18
146F:推 yankees733: Russell超級守備 10/11 06:18
147F:推 chen06: 這樣竟然也能撲到!!!!!! 10/11 06:19
148F:→ hicker: 小熊士氣到頂 開啟[鐵壁]模式 10/11 06:19
149F:→ chen06: KKKKKK 10/11 06:19
150F:→ hicker: K也出來了 10/11 06:19
151F:→ chen06: 話說剛Gone不死鳥的球迷好像也蠻high der 10/11 06:20
152F:→ chen06: 不死鳥三上三下 現在連小熊投手也開外掛 XD 10/11 06:21
153F:→ coon182: 今天贏定了 10/11 06:21
154F:推 asdzxc1662: 是小熊迷吧 感覺很多 10/11 06:21
155F:推 thebig: 沒了連勝士氣,又來一波更高的士氣 10/11 06:22
156F:→ thebig: 年輕就是熱血! 10/11 06:23
157F:→ hicker: 紅雀換投 Lynn登板 10/11 06:23
158F:推 abc06: 換投手了 LYNN 10/11 06:23
159F:推 honafire: 換投 太屌了 10/11 06:24
160F:推 pjharper: 這算燒先發嗎 10/11 06:24
161F:→ nyyjeter8: 感覺沒熱好 10/11 06:24
162F:推 MrBigTree: bb 10/11 06:24
163F:→ hicker: 算 看來G4紅雀要換先發了 10/11 06:25
164F:推 chen06: 第四戰先發出來當第二場中繼先送小熊1BB 0out 10/11 06:25
165F:推 KYOROD: 你感受到了百年怨念的份量了嗎? 10/11 06:25
166F:推 abc06: 控球很爛 10/11 06:25
167F:→ honafire: 紅雀今天爆炸吧XDDD 10/11 06:25
168F:推 freedomshit: 再多打幾分阿 這場一定要拿下 10/11 06:26
169F:→ abc06: Single 13b 10/11 06:26
170F:→ nyyjeter8: 這場氣勢打出來就有戲了 下場又ACE 10/11 06:27
171F:推 MrBigTree: 戰術成功率100% 10/11 06:27
172F:→ chen06: 三上 1、3B 0 out 10/11 06:27
173F:推 Ikaruwill: 無人出局一三壘有人,小熊加油啊 10/11 06:27
174F:推 pjharper: 西瓜今天神了~ 10/11 06:27
175F:推 ericpitt: 如果這系列賽小熊贏 這調度會被質疑 10/11 06:27
176F:推 KYOROD: 梅登老伯~如果贏球中午就吃肯德基 10/11 06:27
177F:→ chen06: 吃肯德基? 10/11 06:28
178F:→ hicker: 看來Lynn穩下來了 10/11 06:30
179F:推 chen06: 那麼多小熊球迷跑到不死鳥的主場看球 10/11 06:31
180F:→ hicker: 問一下 今天先發的Garcia 如果中二日G4先發 休息夠嗎?? 10/11 06:31
181F:推 abc06: 6:1 10/11 06:33
182F:推 dandanhanbau: 6:1 10/11 06:33
183F:→ hicker: CHC 6:1 STL 10/11 06:33
184F:→ abc06: 為什麼會把投手排第八棒 10/11 06:34
185F:推 freedomshit: 投手擺8棒 真的不適合 10/11 06:34
186F:→ dandanhanbau: 陳建君真的很鳥 10/11 06:35
187F:→ freedomshit: 給其他野手打安打機率還比較高 10/11 06:35
188F:推 chen06: 竟然趁換投多打幾分 6:1 小熊領先 10/11 06:35
189F:→ chen06: 有點可惜 1、3B時 0out才回來1分 10/11 06:36
190F:→ hicker: 應該是想製造9-1連線 所以把投手放八棒?? 10/11 06:36
191F:推 he00125965: 這是梅登的風格 10/11 06:36
192F:→ hicker: 投手換代打 Lynn也下班了 10/11 06:40
193F:推 chen06: 不死鳥偷牛棚日 Lynn下再換投 會天罰嗎? 10/11 06:40
194F:推 dunhiller: KKKKKKKKKKKK 10/11 06:40
195F:推 a23644910: KKKKKKK 10/11 06:40
196F:→ a23644910: 豪猛啊! 10/11 06:40
197F:→ dunhiller: 球棒還要回去 10/11 06:41
198F:推 Ikaruwill: 球棒還是得要還回去 10/11 06:41
199F:→ chen06: 球棒打到本壘後的球迷,這樣竟然沒有直接送給球迷 3OUT 10/11 06:42
200F:推 dandanhanbau: 穩 10/11 06:42
201F:推 a23644910: 三上三下 10/11 06:42
202F:推 freedomshit: 紅鳥這場還不想放掉耶 這樣調度真的好嗎... 10/11 06:43
203F:→ nyyjeter8: 大幅領先 投超順 10/11 06:43
204F:推 rover1213: 打到的是熊迷.. 10/11 06:43
205F:推 goro18: 球棒可以不還吧?! 10/11 06:43
206F:推 dog23698: 被打全壘打後九上九下,好猛呀!! 10/11 06:44
207F:推 chen06: 球棒可以不還吧?像界外球一樣嗎? XDD 10/11 06:45
208F:推 Ikaruwill: 可能是規定要球棒要還之前有看過一樣的案例 10/11 06:45
209F:推 abc06: 又換投? 是要燒幾個RP 10/11 06:46
210F:推 dunhiller: 有看夠球迷不還,結果也沒要回去 10/11 06:46
211F:→ nyyjeter8: 玩車輪戰了 10/11 06:46
212F:推 OceanAdin: 老大繼續低迷 10/11 06:49
213F:推 freedomshit: 老大完全熄火 10/11 06:49
214F:推 abc06: 老大弱爆了 10/11 06:49
215F:推 Ikaruwill: 老大客場季後賽拼命打鐵,等回主場看能不能回穩 10/11 06:51
216F:推 a23644910: KKKKK 10/11 07:00
217F:→ chen06: KKKKK 小熊6:1領先 10/11 07:01
218F:推 dunhiller: kkkkkkkkkkkkkk 10/11 07:11
219F:推 chen06: 小熊先發今天開外卦(牛棚還一直熱身) 10/11 07:12
220F:→ dunhiller: 再kkkkkkkkkkkkkk 10/11 07:12
221F:推 a23644910: 炸惹 10/11 07:13
222F:→ dunhiller: 炸裂 10/11 07:13
223F:推 KYOROD: 怎麼不是K就是HR 10/11 07:13
224F:→ chen06: 一說就又被炸 好險是陽春HR 10/11 07:13
225F:→ abc06: B2B 6:3 10/11 07:15
226F:→ abc06: 還有得打 10/11 07:15
227F:推 a23644910: b2b... 10/11 07:15
228F:→ chen06: B2B 10/11 07:15
229F:推 dunhiller: b2b 10/11 07:15
230F:推 honafire: QQ 10/11 07:15
231F:推 yankees733: B2B 10/11 07:15
232F:推 dog23698: B2B....... 10/11 07:15
233F:推 KYOROD: 戰局真是瞬息萬變 10/11 07:15
234F:→ ZhouGongJin: 熊熊撐住阿 10/11 07:15
235F:→ honafire: 真的第三輪就開始被尻 10/11 07:16
236F:→ KYOROD: 真是謹慎啊 馬上就換了 10/11 07:16
237F:→ a23644910: 直接換 10/11 07:16
238F:推 abc06: 小熊這場輸不得 10/11 07:18
239F:→ KYOROD: Kerry wood上了 10/11 07:19
240F:推 bibi6668: 追到差3分 比賽就還有得看 10/11 07:21
241F:推 miocte: 不死鳥會逆轉嘛 讓我們繼續看下去 10/11 07:27
242F:推 OceanAdin: 主審抖一下XDDDDDDDDDDDDDD 10/11 07:27
243F:推 dunhiller: 主審忍住 10/11 07:28
244F:推 blickmon: 主審嘎里筍 10/11 07:31
245F:推 MrBigTree: 三上三下 10/11 07:36
246F:推 OceanAdin: 為了不讓老大打DP 先跑到2B 10/11 07:40
247F:推 MrBigTree: 左中外野間落地 H?E? 10/11 07:41
248F:推 abc06: 要抓Laoda 10/11 07:44
249F:推 OceanAdin: 還是給老大打DP的機會= = 西瓜快發動雙盜壘 10/11 07:44
250F:→ abc06: LaoDa DP球 10/11 07:44
251F:→ OceanAdin: 老大一整個鳥 他棒次要換一下了 10/11 07:44
252F:推 dandanhanbau: 老大 不意外 10/11 07:44
253F:→ thebig: 老大低迷到極點 10/11 07:45
254F:推 Ikaruwill: 老大差點又絕殺這半局 10/11 07:45
255F:推 miocte: wong球抓不穩 10/11 07:45
256F:推 KYOROD: 一直打鐵 10/11 07:45
257F:推 MrBigTree: 隱形失誤 1out 13B 10/11 07:45
258F:推 ghast159: 二壘那個是王建民? 10/11 07:45
259F:推 YESGOTO: 老大躲過DP 10/11 07:46
260F:噓 LAGOD: 叫布萊恩的果然都是雜魚,靠名氣的 10/11 07:46
261F:→ OceanAdin: 他姓汪 廣東念法的樣子 10/11 07:46
262F:推 dai26: 要換紅雀一哥了 10/11 07:47
263F:→ LAGOD: 布萊恩又要害球隊輸球嗎 10/11 07:47
264F:推 wow999: 不死鳥今天失常 10/11 07:47
265F:推 miocte: 也是王 只是廣東話拼音 10/11 07:47
266F:推 chen06: 老大季後賽到目前的表現... 10/11 07:48
267F:推 ZhouGongJin: 熊熊 10/11 07:48
268F:推 thebig: Rizzo差點補個雙殺...... 10/11 07:48
269F:→ miocte: 可以挑戰喔 10/11 07:48
270F:推 wow999: OUT 10/11 07:49
271F:推 jordan0329: 看起來out 10/11 07:49
272F:推 dai26: 我瑞竟然推打XDDD 10/11 07:49
273F:推 MrBigTree: 挑戰了 10/11 07:49
274F:→ miocte: 果然挑戰了 10/11 07:49
275F:推 qazzaq3977: 老大去坐板凳啦 10/11 07:50
276F:→ miocte: 溫開水 我是溫水煮熊熊 10/11 07:50
277F:推 YESGOTO: 出來混總是要還的 10/11 07:50
278F:→ nyyjeter8: 好像手快了點 10/11 07:50
279F:→ dai26: 指尖,哈哈哈 10/11 07:50
280F:→ MrBigTree: safe 10/11 07:50
281F:→ dai26: ㄎㄙㄔ衝啊! 10/11 07:51
282F:推 KYOROD: 歷史的潮流你是擋不住的 10/11 07:51
283F:推 best306022: 神守備 10/11 07:52
284F:→ dai26: 一直在平飛~ 10/11 07:52
285F:推 wow999: NP 10/11 07:52
286F:推 if2: 衰啊 10/11 07:52
287F:→ lrh18: 挖靠 這球怎麼接到的. 10/11 07:52
288F:推 MrBigTree: np 10/11 07:52
289F:推 miocte: 東方的神秘力量~ 10/11 07:52
290F:推 LAGOD: 這那個雜魚慢跑啊 10/11 07:52
291F:→ LAGOD: 這種態度,小熊輸一書吧 10/11 07:53
292F:推 gash8830: 真的跑滿慢的... 10/11 07:54
293F:推 wesley2223: 這球打出去這麼快... 10/11 07:55
294F:推 dai26: 先抓好XDDD 10/11 07:55
295F:推 thebig: 是球擊的很強勁吧= = 10/11 07:56
296F:推 OceanAdin: Castro喔 他態度本來就不太好 10/11 07:56
297F:→ lrh18: 有差嗎 那球那麼快 他也沒真的跑很慢 10/11 07:56
298F:→ dai26: 早晚被賣掉 10/11 07:56
299F:推 abc06: 差一點 10/11 07:56
300F:推 wow999: 差點 10/11 07:56
301F:推 YESGOTO: 差一點 10/11 07:57
302F:推 MrBigTree: 差一公尺出牆 10/11 07:57
303F:推 KYOROD: 好險 褲子差點被嚇掉 10/11 07:57
304F:推 dooroqen: 每個都想撈大棒.. 10/11 07:57
305F:推 horseface: 紅鳥氣勢起來了!!!! 小熊傳說加油!!! 10/11 07:58
306F:推 dai26: 米國的東西都好專業 10/11 07:59
307F:推 best306022: 加九手套XDD 10/11 07:59
308F:推 OceanAdin: 跑壘防護手套速度+5喔XD 10/11 07:59
309F:推 MrBigTree: 那手套是廚房用的嗎XD 10/11 07:59
310F:推 if2: 水 10/11 08:00
311F:推 dunhiller: 可惜 10/11 08:00
312F:→ thebig: 水,沒收! 10/11 08:00
313F:→ dai26: 還一個半局了 10/11 08:00
314F:推 YESGOTO: GG 10/11 08:00
315F:→ MrBigTree: 小熊該補個保險分了 10/11 08:00
316F:→ OceanAdin: 還89局 10/11 08:00
317F:推 k19880911: 看來很刺激 目前幾比幾啊?感謝 10/11 08:02
318F:推 OceanAdin: 招牌曲球又來了 10/11 08:05
319F:推 dai26: Cubs 6:3 cardinal 10/11 08:05
320F:推 MrBigTree: 6:3 小熊領先 10/11 08:05
321F:推 dai26: 賽楊也沒拿過賽楊 10/11 08:07
322F:推 MrBigTree: 太高吧 = = 10/11 08:07
323F:推 YESGOTO: 拿香三振 10/11 08:07
324F:推 best306022: KKKKKKKKKKKKKKKKKKKKK 10/11 08:09
325F:推 OceanAdin: 三連斬 10/11 08:09
326F:→ william7713: 看kzone好像沒幾顆好球XD 10/11 08:10
327F:→ OceanAdin: 我猜今天會上軟泥 西瓜我要看劇場 10/11 08:10
328F:推 ugly4: 太猛了 10/11 08:10
329F:推 YESGOTO: 好噁心的曲球 10/11 08:10
330F:推 tsmc1: 極品曲球............. 10/11 08:10
331F:推 zxasqw100: 真王牌 10/11 08:10
332F:→ thebig: 紅雀王牌回來了.. 10/11 08:10
333F:推 Kapersky: M6 10/11 08:12
334F:→ Kapersky: M5 10/11 08:13
335F:推 MrBigTree: M5 10/11 08:13
336F:推 LAGOD: 這代打會不會太急 10/11 08:13
337F:推 dai26: 我羅守備令人安心,真不愧是超級新人 10/11 08:13
338F:推 MrBigTree: KKKKKKKKK 10/11 08:15
339F:→ dai26: 招牌 10/11 08:15
340F:推 LAGOD: 裁判趕下班了 10/11 08:16
341F:推 OceanAdin: 都是新人 10/11 08:16
342F:→ MrBigTree: 三球三振 10/11 08:16
343F:推 horseface: 95mile 伸卡!!! 10/11 08:16
344F:推 OceanAdin: 這隻還能生存在mlb也蠻神 10/11 08:20
345F:推 dai26: 軟動XDD 10/11 08:20
346F:推 hfi780: Broxton還在啊...... 10/11 08:21
347F:→ dai26: 鏡頭切到神A了 10/11 08:21
348F:推 OceanAdin: 輪不到老大打了 我還想再看他打一次 10/11 08:22
349F:→ dai26: 羅素守備看起來真的是s級的。超級流暢 10/11 08:22
350F:推 MrBigTree: WONG NP 10/11 08:23
351F:→ OceanAdin: 守備範圍S+ 傳球C 10/11 08:23
352F:推 dai26: 軟動 10/11 08:25
353F:推 OceanAdin: 軟凍up 10/11 08:25
354F:推 hfi780: 軟動! 10/11 08:25
355F:推 MrBigTree: 軟動XD 10/11 08:25
356F:推 OceanAdin: 一整隊都超年輕 cl也才27 5年內都還能拚季後賽 10/11 08:28
357F:推 MrBigTree: K M2 10/11 08:30
358F:→ MrBigTree: 2OUT 10/11 08:30
359F:推 seaice: 大樹是看哪一場 亂報 10/11 08:31
360F:推 OceanAdin: 攔住而已 10/11 08:31
361F:推 dai26: 可惜 10/11 08:31
362F:→ OceanAdin: 來支再見dp 10/11 08:32
363F:→ william7713: 這兩顆投真準..XD 10/11 08:32
364F:推 MrBigTree: 看錯 SORRY 10/11 08:32
365F:→ dai26: 老大!!!!! 10/11 08:32
366F:→ seaice: NP 10/11 08:33
367F:推 hfi780: 老大! 10/11 08:33
368F:推 if2: 還好抓到 10/11 08:33
369F:推 chen06: 2 out 小熊加油!!!!! 10/11 08:33
370F:推 purification: 守備很幫忙 10/11 08:33
371F:→ OceanAdin: 可惜 好險抓一個 10/11 08:33
372F:→ hicker: M1囉 10/11 08:33
373F:推 ahonchen: NPPPPPPPP 靠 有點感動 10/11 08:33
374F:→ Kapersky: 真的是天命 10/11 08:33
375F:推 DerekHolland: 原來老大是守備組 10/11 08:33
376F:→ chen06: 老大季後賽目前為止只守備組 XD 10/11 08:33
377F:推 IrvingKyrie: 老大不愧是年度防守第一隊的 10/11 08:33
378F:推 lovecut: 老大 防守組 讚讚 10/11 08:33
379F:推 Ikaruwill: 老大怒刷一鍋 10/11 08:34
380F:→ hfi780: 軟動真準 10/11 08:34
381F:→ chen06: 可是老大打擊也要發揮一下啊 不要一直K和DP XDD 10/11 08:34
382F:→ Kapersky: 是要追平什 差三分 = = 10/11 08:34
383F:→ DerekHolland: 不只守死對方 也守死自己的老大 10/11 08:34
384F:推 seaice: 希望老大回主場不要再打鐵了 10/11 08:35
385F:推 MrBigTree: 再一好球!! 10/11 08:35
386F:推 dai26: 不舉????? 10/11 08:35
387F:推 if2: 不舉 10/11 08:35
388F:推 wow999: 嚇到 10/11 08:35
389F:→ dai26: WOW 10/11 08:35
390F:→ chen06: 有好球空間耶 10/11 08:35
391F:→ if2: 贏 10/11 08:35
392F:→ hicker: CHC 6:3 STL GAMESET NLDS CHC 1:1 STL 10/11 08:35
393F:推 a23644910: 贏啦! 10/11 08:35
394F:→ william7713: 一直打給老大XDDD 10/11 08:35
395F:推 kimuratakuya: 剛剛那顆頭盔是有延伸到臉那邊嗎? 10/11 08:35
396F:→ seaice: GameSet 10/11 08:35
397F:推 asdzxc1662: 贏了!! 10/11 08:35
398F:推 abc06: 1:1 平 10/11 08:35
399F:推 hfi780: 這球台灣就拉掉了XDDD 10/11 08:35
400F:推 OceanAdin: 紅鳥主場 小熊迷好大聲XDDDDDDDDDDDDDDDDDDDDDDDD 10/11 08:35
401F:→ ARodGodlike: 爽啦 你雀掰 10/11 08:35
402F:→ Kapersky: GAMESET 10/11 08:35
403F:推 satonoo: 我熊贏啦!!!! 10/11 08:35
404F:→ MrBigTree: 扳平了 10/11 08:35
405F:推 ZhouGongJin: 熊熊贏了,爽。 10/11 08:35
406F:→ Kapersky: 回小熊 在連下兩場吧 10/11 08:36
407F:推 IrvingKyrie: 老大防守真強 10/11 08:36
408F:推 evilgenius: 爽 10/11 08:36
409F:推 BaGaJohn5566: 送 小熊要拿冠軍了 10/11 08:36
410F:→ chen06: 守備組的老大 小熊今年拿冠軍!!!!! 10/11 08:36
411F:→ hfi780: 2015小熊拿冠軍! 10/11 08:36
412F:推 lovecut: 小熊冠軍阿!!!!!!!!!!!!!! 10/11 08:36
413F:推 Darvish0831: 小熊回主場再拿兩場吧!!!!下一場王牌阿瑞亞塔!! 10/11 08:36
414F:→ wow999: 老大防守組的XD 10/11 08:36
415F:→ IrvingKyrie: 當老大交出球權 誰還贏的了他的球隊 10/11 08:36
416F:推 liDong: 恭喜小熊!!! 10/11 08:36
417F:推 he02341997: 小熊總冠軍! 10/11 08:37
418F:→ Kapersky: 第三場應該是他吧 10/11 08:37
419F:→ OceanAdin: 至少不是監視器防守 打擊真的要等他開竅 畢竟第一年 10/11 08:37
420F:推 hfi780: 再來要換神A了,小熊加油! 10/11 08:38
421F:推 Ikaruwill: 帶一勝回主場意義重大,小熊今年拿冠軍 10/11 08:39
422F:→ j3307002: 小熊今年拿冠軍! 10/11 08:39
423F:推 hihi29: 小熊今年拿冠軍! 10/11 08:40
424F:推 cmgsh42405: 小熊今年拿冠軍! 10/11 08:42
425F:推 lingjj: 小熊今年拿冠軍!!! 10/11 08:42
426F:→ Kitakami: 2015唯一支持芝加哥小熊 10/11 08:49
427F:推 ccckkkaa: 小熊總冠軍!! 10/11 08:49
428F:推 chacha200623: 小熊今年拿冠軍!!! 10/11 08:50
429F:→ TSbb: 今天海巡輸了,可能會瘋狂檢舉板友推文喔 10/11 08:53
430F:推 magicqw: 2015 唯一支持 小熊拿冠軍 10/11 08:57
431F:推 acidrain: 小熊今年拿冠軍! 10/11 09:03
432F:推 elvis51: 小熊今年拿冠軍 10/11 09:06
433F:推 joyeszhang: 回到未來!!! 10/11 09:16
434F:推 lmf770410: P幣晚點發喔,剛睡醒 10/11 09:28
435F:推 ttnakafzcm: 我的已經發了! 10/11 09:46
436F:推 TSbb: 收到惹,讚 10/11 09:55
437F:推 BosRedsucks: 小熊總冠軍 10/11 09:57
438F:推 katanakiller: 小熊今年拿冠軍!!! 10/11 10:30
439F:推 yushenlin: hicker好嗨 10/11 13:29